Year,Month,Day,Hour,Minute,Value (Times are PST for temperature in C)
2015,07,25,00,00,16.10
2015,07,25,00,01,16.10
2015,07,25,00,02,16.10
2015,07,25,00,03,16.10
2015,07,25,00,04,16.20
2015,07,25,00,05,16.20
2015,07,25,00,06,16.20
2015,07,25,00,07,16.20
2015,07,25,00,08,16.30
2015,07,25,00,09,16.30
2015,07,25,00,10,16.30
2015,07,25,00,11,16.30
2015,07,25,00,12,16.30
2015,07,25,00,13,16.30
2015,07,25,00,14,16.40
2015,07,25,00,15,16.40
2015,07,25,00,16,16.40
2015,07,25,00,17,16.40
2015,07,25,00,18,16.50
2015,07,25,00,19,16.50
2015,07,25,00,20,16.50
2015,07,25,00,21,16.60
2015,07,25,00,22,16.60
2015,07,25,00,23,16.60
2015,07,25,00,24,16.60
2015,07,25,00,25,16.60
2015,07,25,00,26,16.60
2015,07,25,00,27,16.60
2015,07,25,00,28,16.60
2015,07,25,00,29,16.60
2015,07,25,00,30,16.60
2015,07,25,00,31,16.60
2015,07,25,00,32,16.60
2015,07,25,00,33,16.70
2015,07,25,00,34,16.70
2015,07,25,00,35,16.70
2015,07,25,00,36,16.70
2015,07,25,00,37,16.70
2015,07,25,00,38,16.70
2015,07,25,00,39,16.70
2015,07,25,00,40,16.70
2015,07,25,00,41,16.70
2015,07,25,00,42,16.70
2015,07,25,00,43,16.70
2015,07,25,00,44,16.70
2015,07,25,00,45,16.70
2015,07,25,00,46,16.70
2015,07,25,00,47,16.70
2015,07,25,00,48,16.70
2015,07,25,00,49,16.70
2015,07,25,00,50,16.70
2015,07,25,00,51,16.70
2015,07,25,00,52,16.70
2015,07,25,00,53,16.70
2015,07,25,00,54,16.70
2015,07,25,00,55,16.70
2015,07,25,00,56,16.70
2015,07,25,00,57,16.70
2015,07,25,00,58,16.70
2015,07,25,00,59,16.70
2015,07,25,01,00,16.70
2015,07,25,01,01,16.70
2015,07,25,01,02,16.70
2015,07,25,01,03,16.70
2015,07,25,01,04,16.70
2015,07,25,01,05,16.70
2015,07,25,01,06,16.70
2015,07,25,01,07,16.70
2015,07,25,01,08,16.80
2015,07,25,01,09,16.80
2015,07,25,01,10,16.80
2015,07,25,01,11,16.80
2015,07,25,01,12,16.80
2015,07,25,01,13,16.80
2015,07,25,01,14,16.80
2015,07,25,01,15,16.80
2015,07,25,01,16,16.80
2015,07,25,01,17,16.80
2015,07,25,01,18,16.80
2015,07,25,01,19,16.70
2015,07,25,01,20,16.70
2015,07,25,01,21,16.70
2015,07,25,01,22,16.70
2015,07,25,01,23,16.70
2015,07,25,01,24,16.70
2015,07,25,01,25,16.70
2015,07,25,01,26,16.70
2015,07,25,01,27,16.70
2015,07,25,01,28,16.60
2015,07,25,01,29,16.60
2015,07,25,01,30,16.60
2015,07,25,01,31,16.60
2015,07,25,01,32,16.60
2015,07,25,01,33,16.60
2015,07,25,01,34,16.60
2015,07,25,01,35,16.60
2015,07,25,01,36,16.60
2015,07,25,01,37,16.60
2015,07,25,01,38,16.60
2015,07,25,01,39,16.60
2015,07,25,01,40,16.60
2015,07,25,01,41,16.60
2015,07,25,01,42,16.60
2015,07,25,01,43,16.60
2015,07,25,01,44,16.60
2015,07,25,01,45,16.60
2015,07,25,01,46,16.60
2015,07,25,01,47,16.60
2015,07,25,01,48,16.60
2015,07,25,01,49,16.60
2015,07,25,01,50,16.60
2015,07,25,01,51,16.60
2015,07,25,01,52,16.60
2015,07,25,01,53,16.60
2015,07,25,01,54,16.60
2015,07,25,01,55,16.60
2015,07,25,01,56,16.60
2015,07,25,01,57,16.60
2015,07,25,01,58,16.60
2015,07,25,01,59,16.60
2015,07,25,02,00,16.60
2015,07,25,02,01,16.60
2015,07,25,02,02,16.60
2015,07,25,02,03,16.60
2015,07,25,02,04,16.60
2015,07,25,02,05,16.60
2015,07,25,02,06,16.60
2015,07,25,02,07,16.60
2015,07,25,02,08,16.60
2015,07,25,02,09,16.70
2015,07,25,02,10,16.70
2015,07,25,02,11,16.70
2015,07,25,02,12,16.70
2015,07,25,02,13,16.60
2015,07,25,02,14,16.60
2015,07,25,02,15,16.60
2015,07,25,02,16,16.60
2015,07,25,02,17,16.60
2015,07,25,02,18,16.60
2015,07,25,02,19,16.60
2015,07,25,02,20,16.60
2015,07,25,02,21,16.60
2015,07,25,02,22,16.60
2015,07,25,02,23,16.60
2015,07,25,02,24,16.60
2015,07,25,02,25,16.60
2015,07,25,02,26,16.50
2015,07,25,02,27,16.50
2015,07,25,02,28,16.50
2015,07,25,02,29,16.50
2015,07,25,02,30,16.50
2015,07,25,02,31,16.50
2015,07,25,02,32,16.50
2015,07,25,02,33,16.50
2015,07,25,02,34,16.50
2015,07,25,02,35,16.40
2015,07,25,02,36,16.40
2015,07,25,02,37,16.40
2015,07,25,02,38,16.40
2015,07,25,02,39,16.40
2015,07,25,02,40,16.40
2015,07,25,02,41,16.40
2015,07,25,02,42,16.40
2015,07,25,02,43,16.40
2015,07,25,02,44,16.30
2015,07,25,02,45,16.30
2015,07,25,02,46,16.40
2015,07,25,02,47,16.30
2015,07,25,02,48,16.40
2015,07,25,02,49,16.40
2015,07,25,02,50,16.30
2015,07,25,02,51,16.40
2015,07,25,02,52,16.40
2015,07,25,02,53,16.30
2015,07,25,02,54,16.30
2015,07,25,02,55,16.30
2015,07,25,02,56,16.30
2015,07,25,02,57,16.30
2015,07,25,02,58,16.30
2015,07,25,02,59,16.30
2015,07,25,03,00,16.30
2015,07,25,03,01,16.30
2015,07,25,03,02,16.30
2015,07,25,03,06,16.30
2015,07,25,03,07,16.30
2015,07,25,03,08,16.30
2015,07,25,03,09,16.30
2015,07,25,03,10,16.30
2015,07,25,03,11,16.30
2015,07,25,03,12,16.30
2015,07,25,03,13,16.30
2015,07,25,03,14,16.30
2015,07,25,03,15,16.30
2015,07,25,03,16,16.30
2015,07,25,03,17,16.30
2015,07,25,03,18,16.30
2015,07,25,03,19,16.30
2015,07,25,03,20,16.30
2015,07,25,03,21,16.30
2015,07,25,03,22,16.30
2015,07,25,03,23,16.30
2015,07,25,03,24,16.30
2015,07,25,03,25,16.30
2015,07,25,03,26,16.30
2015,07,25,03,27,16.30
2015,07,25,03,28,16.30
2015,07,25,03,29,16.30
2015,07,25,03,30,16.30
2015,07,25,03,31,16.30
2015,07,25,03,32,16.30
2015,07,25,03,33,16.30
2015,07,25,03,34,16.30
2015,07,25,03,35,16.30
2015,07,25,03,36,16.30
2015,07,25,03,37,16.30
2015,07,25,03,38,16.30
2015,07,25,03,39,16.30
2015,07,25,03,40,16.30
2015,07,25,03,41,16.30
2015,07,25,03,42,16.30
2015,07,25,03,43,16.20
2015,07,25,03,44,16.20
2015,07,25,03,45,16.20
2015,07,25,03,46,16.20
2015,07,25,03,47,16.20
2015,07,25,03,48,16.20
2015,07,25,03,49,16.20
2015,07,25,03,50,16.20
2015,07,25,03,51,16.20
2015,07,25,03,52,16.20
2015,07,25,03,53,16.20
2015,07,25,03,54,16.20
2015,07,25,03,55,16.20
2015,07,25,03,56,16.20
2015,07,25,03,57,16.20
2015,07,25,03,58,16.20
2015,07,25,03,59,16.20
2015,07,25,04,00,16.20
2015,07,25,04,01,16.20
2015,07,25,04,02,16.20
2015,07,25,04,03,16.20
2015,07,25,04,04,16.20
2015,07,25,04,05,16.20
2015,07,25,04,06,16.20
2015,07,25,04,07,16.20
2015,07,25,04,08,16.10
2015,07,25,04,09,16.10
2015,07,25,04,10,16.10
2015,07,25,04,11,16.10
2015,07,25,04,12,16.10
2015,07,25,04,13,16.10
2015,07,25,04,14,16.10
2015,07,25,04,15,16.10
2015,07,25,04,16,16.10
2015,07,25,04,17,16.10
2015,07,25,04,18,16.10
2015,07,25,04,19,16.10
2015,07,25,04,20,16.10
2015,07,25,04,21,16.00
2015,07,25,04,22,16.00
2015,07,25,04,23,16.00
2015,07,25,04,24,16.00
2015,07,25,04,25,16.00
2015,07,25,04,26,16.00
2015,07,25,04,27,16.00
2015,07,25,04,28,16.00
2015,07,25,04,29,16.00
2015,07,25,04,30,16.00
2015,07,25,04,31,16.00
2015,07,25,04,32,15.90
2015,07,25,04,33,15.90
2015,07,25,04,34,15.90
2015,07,25,04,35,15.90
2015,07,25,04,36,15.90
2015,07,25,04,37,15.90
2015,07,25,04,38,15.90
2015,07,25,04,39,15.90
2015,07,25,04,40,15.90
2015,07,25,04,41,15.80
2015,07,25,04,42,15.80
2015,07,25,04,43,15.80
2015,07,25,04,44,15.80
2015,07,25,04,45,15.80
2015,07,25,04,46,15.80
2015,07,25,04,47,15.80
2015,07,25,04,48,15.80
2015,07,25,04,49,15.80
2015,07,25,04,50,15.80
2015,07,25,04,51,15.80
2015,07,25,04,52,15.80
2015,07,25,04,53,15.80
2015,07,25,04,54,15.80
2015,07,25,04,55,15.80
2015,07,25,04,56,15.80
2015,07,25,04,57,15.80
2015,07,25,04,58,15.80
2015,07,25,04,59,15.80
2015,07,25,05,00,15.80
2015,07,25,05,01,15.80
2015,07,25,05,02,15.80
2015,07,25,05,03,15.80
2015,07,25,05,04,15.80
2015,07,25,05,05,15.80
2015,07,25,05,06,15.80
2015,07,25,05,07,15.80
2015,07,25,05,08,15.80
2015,07,25,05,09,15.80
2015,07,25,05,10,15.80
2015,07,25,05,11,15.80
2015,07,25,05,12,15.80
2015,07,25,05,13,15.80
2015,07,25,05,14,15.80
2015,07,25,05,15,15.80
2015,07,25,05,16,15.80
2015,07,25,05,17,15.80
2015,07,25,05,18,15.80
2015,07,25,05,19,15.80
2015,07,25,05,20,15.80
2015,07,25,05,21,15.80
2015,07,25,05,22,15.80
2015,07,25,05,23,15.80
2015,07,25,05,24,15.80
2015,07,25,05,25,15.80
2015,07,25,05,26,15.80
2015,07,25,05,27,15.80
2015,07,25,05,28,15.90
2015,07,25,05,29,15.90
2015,07,25,05,30,15.90
2015,07,25,05,31,15.90
2015,07,25,05,32,15.90
2015,07,25,05,33,15.90
2015,07,25,05,34,15.90
2015,07,25,05,35,15.90
2015,07,25,05,36,15.90
2015,07,25,05,37,15.90
2015,07,25,05,38,15.90
2015,07,25,05,39,15.90
2015,07,25,05,40,15.90
2015,07,25,05,41,15.90
2015,07,25,05,42,15.90
2015,07,25,05,43,15.90
2015,07,25,05,44,15.80
2015,07,25,05,45,15.80
2015,07,25,05,46,15.80
2015,07,25,05,47,15.80
2015,07,25,05,48,15.80
2015,07,25,05,49,15.80
2015,07,25,05,50,15.80
2015,07,25,05,51,15.80
2015,07,25,05,52,15.70
2015,07,25,05,53,15.70
2015,07,25,05,54,15.70
2015,07,25,05,55,15.70
2015,07,25,05,56,15.70
2015,07,25,05,57,15.70
2015,07,25,05,58,15.70
2015,07,25,05,59,15.70
2015,07,25,06,00,15.70
2015,07,25,06,01,15.70
2015,07,25,06,02,15.60
2015,07,25,06,03,15.60
2015,07,25,06,04,15.60
2015,07,25,06,05,15.60
2015,07,25,06,06,15.60
2015,07,25,06,07,15.60
2015,07,25,06,08,15.60
2015,07,25,06,09,15.60
2015,07,25,06,10,15.60
2015,07,25,06,11,15.60
2015,07,25,06,12,15.60
2015,07,25,06,13,15.60
2015,07,25,06,14,15.70
2015,07,25,06,15,15.70
2015,07,25,06,16,15.70
2015,07,25,06,17,15.70
2015,07,25,06,18,15.80
2015,07,25,06,19,15.80
2015,07,25,06,20,15.80
2015,07,25,06,21,15.80
2015,07,25,06,22,15.80
2015,07,25,06,23,15.80
2015,07,25,06,24,15.80
2015,07,25,06,25,15.80
2015,07,25,06,26,15.70
2015,07,25,06,27,15.70
2015,07,25,06,28,15.70
2015,07,25,06,29,15.70
2015,07,25,06,30,15.70
2015,07,25,06,31,15.70
2015,07,25,06,32,15.70
2015,07,25,06,33,15.70
2015,07,25,06,34,15.70
2015,07,25,06,35,15.70
2015,07,25,06,36,15.60
2015,07,25,06,37,15.60
2015,07,25,06,38,15.60
2015,07,25,06,39,15.60
2015,07,25,06,40,15.50
2015,07,25,06,41,15.50
2015,07,25,06,42,15.50
2015,07,25,06,43,15.50
2015,07,25,06,44,15.40
2015,07,25,06,45,15.40
2015,07,25,06,46,15.40
2015,07,25,06,47,15.40
2015,07,25,06,48,15.40
2015,07,25,06,49,15.40
2015,07,25,06,50,15.40
2015,07,25,06,51,15.40
2015,07,25,06,52,15.40
2015,07,25,06,53,15.40
2015,07,25,06,54,15.50
2015,07,25,06,55,15.50
2015,07,25,06,56,15.60
2015,07,25,06,57,15.60
2015,07,25,06,58,15.60
2015,07,25,06,59,15.70
2015,07,25,07,00,15.80
2015,07,25,07,01,15.90
2015,07,25,07,02,16.00
2015,07,25,07,03,16.10
2015,07,25,07,04,16.20
2015,07,25,07,05,16.20
2015,07,25,07,06,16.30
2015,07,25,07,07,16.30
2015,07,25,07,08,16.30
2015,07,25,07,09,16.40
2015,07,25,07,10,16.40
2015,07,25,07,11,16.50
2015,07,25,07,12,16.50
2015,07,25,07,13,16.50
2015,07,25,07,14,16.50
2015,07,25,07,15,16.50
2015,07,25,07,16,16.60
2015,07,25,07,17,16.60
2015,07,25,07,18,16.60
2015,07,25,07,19,16.60
2015,07,25,07,20,16.60
2015,07,25,07,21,16.60
2015,07,25,07,22,16.60
2015,07,25,07,23,16.60
2015,07,25,07,24,16.60
2015,07,25,07,25,16.50
2015,07,25,07,26,16.50
2015,07,25,07,27,16.50
2015,07,25,07,28,16.40
2015,07,25,07,29,16.40
2015,07,25,07,30,16.40
2015,07,25,07,31,16.40
2015,07,25,07,32,16.40
2015,07,25,07,33,16.30
2015,07,25,07,34,16.30
2015,07,25,07,35,16.30
2015,07,25,07,36,16.30
2015,07,25,07,37,16.30
2015,07,25,07,38,16.30
2015,07,25,07,39,16.30
2015,07,25,07,40,16.30
2015,07,25,07,41,16.30
2015,07,25,07,42,16.30
2015,07,25,07,43,16.30
2015,07,25,07,44,16.30
2015,07,25,07,45,16.30
2015,07,25,07,46,16.30
2015,07,25,07,47,16.30
2015,07,25,07,48,16.30
2015,07,25,07,49,16.30
2015,07,25,07,50,16.30
2015,07,25,07,51,16.30
2015,07,25,07,52,16.30
2015,07,25,07,53,16.30
2015,07,25,07,54,16.30
2015,07,25,07,55,16.30
2015,07,25,07,56,16.30
2015,07,25,07,57,16.30
2015,07,25,07,58,16.30
2015,07,25,07,59,16.30
2015,07,25,08,00,16.30
2015,07,25,08,01,16.30
2015,07,25,08,02,16.30
2015,07,25,08,03,16.30
2015,07,25,08,04,16.30
2015,07,25,08,05,16.30
2015,07,25,08,06,16.30
2015,07,25,08,07,16.30
2015,07,25,08,08,16.30
2015,07,25,08,09,16.20
2015,07,25,08,10,16.30
2015,07,25,08,11,16.20
2015,07,25,08,12,16.20
2015,07,25,08,13,16.20
2015,07,25,08,14,16.20
2015,07,25,08,15,16.30
2015,07,25,08,16,16.30
2015,07,25,08,17,16.30
2015,07,25,08,18,16.30
2015,07,25,08,19,16.40
2015,07,25,08,20,16.40
2015,07,25,08,21,16.50
2015,07,25,08,22,16.50
2015,07,25,08,23,16.50
2015,07,25,08,24,16.60
2015,07,25,08,25,16.70
2015,07,25,08,26,16.70
2015,07,25,08,27,16.80
2015,07,25,08,28,16.80
2015,07,25,08,29,16.90
2015,07,25,08,30,16.90
2015,07,25,08,31,16.90
2015,07,25,08,32,17.00
2015,07,25,08,33,17.00
2015,07,25,08,34,17.00
2015,07,25,08,35,17.10
2015,07,25,08,36,17.10
2015,07,25,08,37,17.10
2015,07,25,08,38,17.10
2015,07,25,08,39,17.20
2015,07,25,08,40,17.20
2015,07,25,08,41,17.20
2015,07,25,08,42,17.20
2015,07,25,08,43,17.20
2015,07,25,08,44,17.20
2015,07,25,08,45,17.20
2015,07,25,08,46,17.20
2015,07,25,08,47,17.20
2015,07,25,08,48,17.20
2015,07,25,08,49,17.20
2015,07,25,08,50,17.20
2015,07,25,08,51,17.20
2015,07,25,08,52,17.20
2015,07,25,08,53,17.20
2015,07,25,08,54,17.20
2015,07,25,08,55,17.20
2015,07,25,08,56,17.30
2015,07,25,08,57,17.30
2015,07,25,08,58,17.30
2015,07,25,08,59,17.30
2015,07,25,09,00,17.30
2015,07,25,09,01,17.30
2015,07,25,09,02,17.30
2015,07,25,09,03,17.30
2015,07,25,09,04,17.30
2015,07,25,09,05,17.30
2015,07,25,09,06,17.30
2015,07,25,09,07,17.30
2015,07,25,09,08,17.30
2015,07,25,09,09,17.30
2015,07,25,09,10,17.30
2015,07,25,09,11,17.30
2015,07,25,09,12,17.30
2015,07,25,09,13,17.30
2015,07,25,09,14,17.40
2015,07,25,09,15,17.40
2015,07,25,09,16,17.40
2015,07,25,09,17,17.40
2015,07,25,09,18,17.50
2015,07,25,09,19,17.50
2015,07,25,09,20,17.50
2015,07,25,09,21,17.60
2015,07,25,09,22,17.60
2015,07,25,09,23,17.60
2015,07,25,09,24,17.70
2015,07,25,09,25,17.70
2015,07,25,09,26,17.70
2015,07,25,09,27,17.80
2015,07,25,09,28,17.80
2015,07,25,09,29,17.80
2015,07,25,09,30,17.80
2015,07,25,09,31,17.80
2015,07,25,09,32,17.80
2015,07,25,09,33,17.80
2015,07,25,09,34,17.80
2015,07,25,09,35,17.90
2015,07,25,09,36,17.90
2015,07,25,09,37,17.90
2015,07,25,09,38,17.90
2015,07,25,09,39,17.90
2015,07,25,09,40,18.00
2015,07,25,09,41,18.00
2015,07,25,09,42,18.10
2015,07,25,09,43,18.10
2015,07,25,09,44,18.10
2015,07,25,09,45,18.20
2015,07,25,09,46,18.20
2015,07,25,09,47,18.20
2015,07,25,09,48,18.30
2015,07,25,09,49,18.30
2015,07,25,09,50,18.30
2015,07,25,09,51,18.30
2015,07,25,09,52,18.30
2015,07,25,09,53,18.30
2015,07,25,09,54,18.40
2015,07,25,09,55,18.40
2015,07,25,09,56,18.40
2015,07,25,09,57,18.50
2015,07,25,09,58,18.50
2015,07,25,09,59,18.50
2015,07,25,10,00,18.50
2015,07,25,10,01,18.50
2015,07,25,10,02,18.50
2015,07,25,10,03,18.50
2015,07,25,10,04,18.40
2015,07,25,10,05,18.50
2015,07,25,10,06,18.50
2015,07,25,10,07,18.50
2015,07,25,10,08,18.60
2015,07,25,10,09,18.60
2015,07,25,10,10,18.70
2015,07,25,10,11,18.80
2015,07,25,10,12,18.80
2015,07,25,10,13,18.90
2015,07,25,10,14,19.00
2015,07,25,10,15,19.00
2015,07,25,10,16,19.10
2015,07,25,10,17,19.20
2015,07,25,10,18,19.20
2015,07,25,10,19,19.20
2015,07,25,10,20,19.20
2015,07,25,10,21,19.20
2015,07,25,10,22,19.10
2015,07,25,10,23,19.10
2015,07,25,10,24,19.10
2015,07,25,10,25,19.10
2015,07,25,10,26,19.10
2015,07,25,10,27,19.10
2015,07,25,10,28,19.10
2015,07,25,10,29,19.10
2015,07,25,10,30,19.20
2015,07,25,10,31,19.30
2015,07,25,10,32,19.30
2015,07,25,10,33,19.40
2015,07,25,10,34,19.40
2015,07,25,10,35,19.50
2015,07,25,10,36,19.50
2015,07,25,10,37,19.40
2015,07,25,10,38,19.40
2015,07,25,10,39,19.30
2015,07,25,10,40,19.20
2015,07,25,10,41,19.10
2015,07,25,10,42,19.10
2015,07,25,10,43,19.00
2015,07,25,10,44,18.90
2015,07,25,10,45,18.90
2015,07,25,10,46,18.90
2015,07,25,10,47,18.90
2015,07,25,10,48,18.90
2015,07,25,10,49,19.00
2015,07,25,10,50,19.00
2015,07,25,10,51,19.10
2015,07,25,10,52,19.20
2015,07,25,10,53,19.20
2015,07,25,10,54,19.30
2015,07,25,10,55,19.30
2015,07,25,10,56,19.30
2015,07,25,10,57,19.40
2015,07,25,10,58,19.50
2015,07,25,10,59,19.50
2015,07,25,11,00,19.60
2015,07,25,11,01,19.60
2015,07,25,11,02,19.70
2015,07,25,11,03,19.70
2015,07,25,11,04,19.60
2015,07,25,11,05,19.60
2015,07,25,11,06,19.50
2015,07,25,11,07,19.40
2015,07,25,11,08,19.40
2015,07,25,11,09,19.30
2015,07,25,11,10,19.30
2015,07,25,11,11,19.30
2015,07,25,11,12,19.40
2015,07,25,11,13,19.40
2015,07,25,11,14,19.50
2015,07,25,11,15,19.50
2015,07,25,11,16,19.60
2015,07,25,11,17,19.60
2015,07,25,11,18,19.60
2015,07,25,11,19,19.60
2015,07,25,11,20,19.60
2015,07,25,11,21,19.60
2015,07,25,11,22,19.60
2015,07,25,11,23,19.60
2015,07,25,11,24,19.50
2015,07,25,11,25,19.40
2015,07,25,11,26,19.30
2015,07,25,11,27,19.30
2015,07,25,11,28,19.20
2015,07,25,11,29,19.20
2015,07,25,11,30,19.20
2015,07,25,11,31,19.20
2015,07,25,11,32,19.10
2015,07,25,11,33,18.90
2015,07,25,11,34,18.80
2015,07,25,11,35,18.60
2015,07,25,11,36,18.40
2015,07,25,11,37,18.30
2015,07,25,11,38,18.20
2015,07,25,11,39,18.20
2015,07,25,11,40,18.10
2015,07,25,11,41,18.10
2015,07,25,11,42,18.00
2015,07,25,11,43,18.00
2015,07,25,11,44,17.90
2015,07,25,11,45,17.90
2015,07,25,11,46,17.90
2015,07,25,11,47,17.90
2015,07,25,11,48,17.90
2015,07,25,11,49,17.90
2015,07,25,11,50,17.80
2015,07,25,11,51,17.80
2015,07,25,11,52,17.80
2015,07,25,11,53,17.80
2015,07,25,11,54,17.80
2015,07,25,11,55,17.80
2015,07,25,11,56,17.80
2015,07,25,11,57,17.80
2015,07,25,11,58,17.80
2015,07,25,11,59,17.80
2015,07,25,12,00,17.70
2015,07,25,12,01,17.70
2015,07,25,12,02,17.70
2015,07,25,12,03,17.60
2015,07,25,12,04,17.60
2015,07,25,12,05,17.50
2015,07,25,12,06,17.40
2015,07,25,12,07,17.40
2015,07,25,12,08,17.40
2015,07,25,12,09,17.40
2015,07,25,12,10,17.40
2015,07,25,12,11,17.40
2015,07,25,12,12,17.40
2015,07,25,12,13,17.50
2015,07,25,12,14,17.60
2015,07,25,12,15,17.70
2015,07,25,12,16,17.70
2015,07,25,12,17,17.80
2015,07,25,12,18,17.80
2015,07,25,12,19,17.90
2015,07,25,12,20,18.00
2015,07,25,12,21,18.00
2015,07,25,12,22,18.00
2015,07,25,12,23,18.00
2015,07,25,12,24,18.00
2015,07,25,12,25,18.00
2015,07,25,12,26,18.10
2015,07,25,12,27,18.10
2015,07,25,12,28,18.20
2015,07,25,12,29,18.20
2015,07,25,12,30,18.40
2015,07,25,12,31,18.50
2015,07,25,12,32,18.60
2015,07,25,12,33,18.60
2015,07,25,12,34,18.70
2015,07,25,12,35,18.80
2015,07,25,12,36,18.80
2015,07,25,12,37,18.90
2015,07,25,12,38,19.00
2015,07,25,12,39,19.10
2015,07,25,12,40,19.20
2015,07,25,12,41,19.30
2015,07,25,12,42,19.30
2015,07,25,12,43,19.40
2015,07,25,12,44,19.50
2015,07,25,12,45,19.60
2015,07,25,12,46,19.60
2015,07,25,12,47,19.60
2015,07,25,12,48,19.60
2015,07,25,12,49,19.60
2015,07,25,12,50,19.50
2015,07,25,12,51,19.50
2015,07,25,12,52,19.50
2015,07,25,12,53,19.50
2015,07,25,12,54,19.60
2015,07,25,12,55,19.60
2015,07,25,12,56,19.70
2015,07,25,12,57,19.80
2015,07,25,12,58,19.80
2015,07,25,12,59,19.80
2015,07,25,13,00,19.80
2015,07,25,13,01,19.90
2015,07,25,13,02,19.90
2015,07,25,13,03,20.00
2015,07,25,13,04,20.00
2015,07,25,13,05,20.00
2015,07,25,13,06,20.10
2015,07,25,13,07,20.10
2015,07,25,13,08,20.20
2015,07,25,13,09,20.30
2015,07,25,13,10,20.30
2015,07,25,13,11,20.30
2015,07,25,13,12,20.30
2015,07,25,13,13,20.30
2015,07,25,13,14,20.30
2015,07,25,13,15,20.20
2015,07,25,13,16,20.20
2015,07,25,13,17,20.20
2015,07,25,13,18,20.20
2015,07,25,13,19,20.10
2015,07,25,13,20,20.10
2015,07,25,13,21,20.10
2015,07,25,13,22,20.10
2015,07,25,13,23,20.20
2015,07,25,13,24,20.20
2015,07,25,13,25,20.30
2015,07,25,13,26,20.40
2015,07,25,13,27,20.40
2015,07,25,13,28,20.50
2015,07,25,13,29,20.50
2015,07,25,13,30,20.50
2015,07,25,13,31,20.40
2015,07,25,13,32,20.40
2015,07,25,13,33,20.40
2015,07,25,13,34,20.40
2015,07,25,13,35,20.40
2015,07,25,13,36,20.40
2015,07,25,13,37,20.30
2015,07,25,13,38,20.30
2015,07,25,13,39,20.30
2015,07,25,13,40,20.30
2015,07,25,13,41,20.30
2015,07,25,13,42,20.30
2015,07,25,13,43,20.30
2015,07,25,13,44,20.40
2015,07,25,13,45,20.40
2015,07,25,13,46,20.40
2015,07,25,13,47,20.50
2015,07,25,13,48,20.50
2015,07,25,13,49,20.50
2015,07,25,13,50,20.50
2015,07,25,13,51,20.50
2015,07,25,13,52,20.50
2015,07,25,13,53,20.50
2015,07,25,13,54,20.50
2015,07,25,13,55,20.40
2015,07,25,13,56,20.30
2015,07,25,13,57,20.20
2015,07,25,13,58,20.20
2015,07,25,13,59,20.20
2015,07,25,14,00,20.20
2015,07,25,14,01,20.20
2015,07,25,14,02,20.20
2015,07,25,14,03,20.20
2015,07,25,14,04,20.20
2015,07,25,14,05,20.20
2015,07,25,14,06,20.20
2015,07,25,14,07,20.20
2015,07,25,14,08,20.20
2015,07,25,14,09,20.20
2015,07,25,14,10,20.20
2015,07,25,14,11,20.20
2015,07,25,14,12,20.20
2015,07,25,14,13,20.20
2015,07,25,14,14,20.20
2015,07,25,14,15,20.30
2015,07,25,14,16,20.30
2015,07,25,14,17,20.30
2015,07,25,14,18,20.30
2015,07,25,14,19,20.40
2015,07,25,14,20,20.40
2015,07,25,14,21,20.40
2015,07,25,14,22,20.40
2015,07,25,14,23,20.50
2015,07,25,14,24,20.50
2015,07,25,14,25,20.60
2015,07,25,14,26,20.60
2015,07,25,14,27,20.60
2015,07,25,14,28,20.60
2015,07,25,14,29,20.50
2015,07,25,14,30,20.50
2015,07,25,14,31,20.40
2015,07,25,14,32,20.40
2015,07,25,14,33,20.40
2015,07,25,14,34,20.40
2015,07,25,14,35,20.40
2015,07,25,14,36,20.30
2015,07,25,14,37,20.30
2015,07,25,14,38,20.20
2015,07,25,14,39,20.10
2015,07,25,14,40,20.10
2015,07,25,14,41,20.10
2015,07,25,14,42,20.00
2015,07,25,14,43,20.00
2015,07,25,14,44,20.00
2015,07,25,14,45,19.90
2015,07,25,14,46,19.80
2015,07,25,14,47,19.80
2015,07,25,14,48,19.90
2015,07,25,14,49,19.90
2015,07,25,14,50,20.00
2015,07,25,14,51,20.00
2015,07,25,14,52,20.00
2015,07,25,14,53,20.10
2015,07,25,14,54,20.10
2015,07,25,14,55,20.10
2015,07,25,14,56,20.00
2015,07,25,14,57,20.00
2015,07,25,14,58,20.00
2015,07,25,14,59,20.10
2015,07,25,15,00,20.10
2015,07,25,15,01,20.10
2015,07,25,15,02,20.10
2015,07,25,15,03,20.10
2015,07,25,15,04,20.20
2015,07,25,15,05,20.20
2015,07,25,15,06,20.30
2015,07,25,15,07,20.30
2015,07,25,15,08,20.40
2015,07,25,15,09,20.40
2015,07,25,15,10,20.40
2015,07,25,15,11,20.40
2015,07,25,15,12,20.40
2015,07,25,15,13,20.30
2015,07,25,15,14,20.30
2015,07,25,15,15,20.30
2015,07,25,15,16,20.20
2015,07,25,15,17,20.20
2015,07,25,15,18,20.20
2015,07,25,15,19,20.20
2015,07,25,15,20,20.20
2015,07,25,15,21,20.30
2015,07,25,15,22,20.20
2015,07,25,15,23,20.20
2015,07,25,15,24,20.20
2015,07,25,15,25,20.30
2015,07,25,15,26,20.30
2015,07,25,15,27,20.30
2015,07,25,15,28,20.30
2015,07,25,15,29,20.30
2015,07,25,15,30,20.40
2015,07,25,15,31,20.40
2015,07,25,15,32,20.50
2015,07,25,15,33,20.60
2015,07,25,15,34,20.70
2015,07,25,15,35,20.90
2015,07,25,15,36,21.00
2015,07,25,15,37,21.00
2015,07,25,15,38,21.10
2015,07,25,15,39,21.10
2015,07,25,15,40,21.10
2015,07,25,15,41,21.10
2015,07,25,15,42,21.00
2015,07,25,15,43,20.90
2015,07,25,15,44,20.70
2015,07,25,15,45,20.60
2015,07,25,15,46,20.50
2015,07,25,15,47,20.40
2015,07,25,15,48,20.30
2015,07,25,15,49,20.20
2015,07,25,15,50,20.00
2015,07,25,15,51,20.00
2015,07,25,15,52,19.90
2015,07,25,15,53,19.90
2015,07,25,15,54,19.90
2015,07,25,15,55,19.90
2015,07,25,15,56,19.90
2015,07,25,15,57,20.00
2015,07,25,15,58,19.90
2015,07,25,15,59,19.90
2015,07,25,16,00,19.90
2015,07,25,16,01,19.90
2015,07,25,16,02,20.00
2015,07,25,16,03,20.00
2015,07,25,16,04,20.10
2015,07,25,16,05,20.10
2015,07,25,16,06,20.10
2015,07,25,16,07,20.10
2015,07,25,16,08,20.10
2015,07,25,16,09,20.10
2015,07,25,16,10,20.10
2015,07,25,16,11,20.10
2015,07,25,16,12,20.00
2015,07,25,16,13,20.00
2015,07,25,16,14,20.00
2015,07,25,16,15,20.00
2015,07,25,16,16,19.90
2015,07,25,16,17,20.00
2015,07,25,16,18,20.00
2015,07,25,16,19,20.10
2015,07,25,16,20,20.10
2015,07,25,16,21,20.10
2015,07,25,16,22,20.10
2015,07,25,16,23,20.10
2015,07,25,16,24,20.20
2015,07,25,16,25,20.20
2015,07,25,16,26,20.20
2015,07,25,16,27,20.10
2015,07,25,16,28,20.20
2015,07,25,16,29,20.20
2015,07,25,16,30,20.20
2015,07,25,16,31,20.20
2015,07,25,16,32,20.20
2015,07,25,16,33,20.20
2015,07,25,16,34,20.20
2015,07,25,16,35,20.30
2015,07,25,16,36,20.30
2015,07,25,16,37,20.30
2015,07,25,16,38,20.30
2015,07,25,16,39,20.30
2015,07,25,16,40,20.40
2015,07,25,16,41,20.40
2015,07,25,16,42,20.50
2015,07,25,16,43,20.50
2015,07,25,16,44,20.60
2015,07,25,16,45,20.60
2015,07,25,16,46,20.70
2015,07,25,16,47,20.80
2015,07,25,16,48,20.90
2015,07,25,16,49,20.90
2015,07,25,16,50,20.90
2015,07,25,16,51,20.90
2015,07,25,16,52,20.90
2015,07,25,16,53,20.90
2015,07,25,16,54,20.90
2015,07,25,16,55,20.90
2015,07,25,16,56,21.00
2015,07,25,16,57,21.00
2015,07,25,16,58,21.00
2015,07,25,16,59,21.10
2015,07,25,17,00,21.10
2015,07,25,17,01,21.10
2015,07,25,17,02,21.10
2015,07,25,17,03,21.10
2015,07,25,17,04,21.10
2015,07,25,17,05,21.10
2015,07,25,17,06,21.10
2015,07,25,17,07,21.10
2015,07,25,17,08,21.20
2015,07,25,17,09,21.20
2015,07,25,17,10,21.20
2015,07,25,17,11,21.20
2015,07,25,17,12,21.20
2015,07,25,17,13,21.10
2015,07,25,17,14,21.00
2015,07,25,17,15,20.80
2015,07,25,17,16,20.70
2015,07,25,17,17,20.50
2015,07,25,17,18,20.50
2015,07,25,17,19,20.40
2015,07,25,17,20,20.30
2015,07,25,17,21,20.20
2015,07,25,17,22,20.10